sat.trackr.live / text

‹ back to catalog

STARLINK-11721 [DTC]

NORAD 64127 · 2025-111E

PAYLOAD ACTIVE UNKNOWN

§ Identity

Operator
Country
US
Launch date
2025-05-24
Launch site
AFETR
Launch vehicle
Mass (kg)
RCS (m²)

Purposes: comms

External: N2YO · Heavens-Above · Gunter

§ Orbital elements

Epoch: 2026-09-20T07:43:10.445088Z

Period
91.67 min
Inclination
43.0003°
Eccentricity
0.0001244
Mean motion
15.70850873 rev/d
Perigee alt
355.6 km
Apogee alt
357.3 km
Semi-major
6,734.6 km
B*
1.1257e-3
RAAN
240.3167°
Arg perigee
268.2802°
Mean anomaly
91.7923°
Rev number
7,725

§ Raw data

STARLINK-11721 [DTC]1 64127U 25111E   26263.32164867  .00146637  00000+0  11257-2 0  99902 64127  43.0003 240.3167 0001244 268.2802  91.7923 15.70850873 77250

JSON: /api/v1/satellites/64127 · /tle

For live sub-satellite position, see the globe view (requires WebGL).

§ Visibility from observer

Set your observer location to see the next 7 days of passes ≥ 10°. The values pass through the URL so the page stays shareable.

No JS? Fill the form by hand. The geolocation button needs JavaScript.